Список аэропортов
Фактическая погода:

26 апреля, 12:00
Температура: +23°C (+23.0*)
Ветер: перем. 1 м/с
Давление: *762 мм
Без существ. явл.
Время (МСК)Темп. СВетерВлажностьДавлениеОблачностьОсадки
09:00+18ЮВ, 2 м/с45%1017 гПас прояснениями
10:00+20Ю, 2 м/с38%1017 гПамалооблачно
11:00+22Ю, 2 м/с34%1016 гПас прояснениями
12:00+23Ю, 2 м/с32%1016 гПас прояснениями
13:00+24Ю, 1 м/с32%1016 гПас прояснениями
14:00+25ЮЗ, 1 м/с32%1015 гПас прояснениями
15:00+26З, 1 м/с31%1015 гПаоблачно
16:00+26З, 2 м/с30%1014 гПаоблачно
17:00+26З, 3 м/с31%1014 гПаоблачно
18:00+26З, 3 м/с32%1014 гПаоблачно
19:00+24СЗ, 3 м/с35%1014 гПаоблачно
20:00+22СЗ, 2 м/с45%1014 гПаоблачно
21:00+21СЗ, 2 м/с55%1015 гПаоблачно
22:00+19С, 2 м/с63%1015 гПаоблачно
23:00+18СВ, 2 м/с69%1014 гПаоблачно
27 апреля
00:00+18СВ, 2 м/с74%1014 гПаоблачно
01:00+17СВ, 3 м/с75%1014 гПас прояснениями
02:00+16СВ, 3 м/с77%1014 гПаясно
03:00+16СВ, 2 м/с82%1014 гПаясно
04:00+15В, 2 м/с90%1013 гПаясно
05:00+14СВ, 2 м/с94%1014 гПаясно
06:00+14СВ, 2 м/с96%1014 гПамалооблачно
07:00+15СВ, 2 м/с90%1013 гПаясно
08:00+17В, 3 м/с73%1012 гПаясно
09:00+19В, 3 м/с62%1012 гПаясно
10:00+21ЮВ, 2 м/с55%1012 гПаясно
11:00+23ЮВ, 2 м/с50%1012 гПаясно
12:00+25ЮВ, 1 м/с43%1011 гПаясно
13:00+26Ю, 1 м/с38%1011 гПаясно
14:00+28ЮЗ, 5 м/с29%1011 гПаясно
15:00+28З, 6 м/с26%1010 гПаясно
16:00+28З, 6 м/с25%1010 гПаясно
17:00+28З, 6 м/с26%1010 гПаясно
18:00+27З, 5 м/с28%1010 гПаясно
19:00+25З, 4 м/с37%1010 гПаясно
20:00+24СЗ, 6 м/с43%1011 гПаясно
21:00+22СЗ, 4 м/с45%1012 гПаоблачно
22:00+21СЗ, 3 м/с50%1013 гПаоблачно
23:00+19СЗ, 3 м/с57%1012 гПаоблачно
28 апреля
00:00+18СЗ, 3 м/с62%1013 гПаоблачно
01:00+17СЗ, 4 м/с65%1013 гПаясно
02:00+17СЗ, 6 м/с63%1014 гПаясно
03:00+16С, 6 м/с68%1015 гПаясно
04:00+15С, 5 м/с69%1015 гПаясно
05:00+14СЗ, 3 м/с72%1017 гПаясно
06:00+14СЗ, 3 м/с74%1018 гПаясно
07:00+14С, 6 м/с65%1018 гПаясно
08:00+15С, 5 м/с55%1019 гПаясно
09:00+16СВ, 5 м/с50%1019 гПаясно